Home > Weather > Umm al-Quwain > Past weeks

Flag for United Arab Emirates Past Weather in Umm al-Quwain, Umm al-Quwain, United Arab Emirates — Yesterday and Last 2 Weeks

Now
104 °F

Passing clouds.


Feels Like: 117 °F
Forecast: 90 / 98 °F
Wind: 10 mph from Southeast

Location: Sharjah International Airport

Current Time: Jul 25, 2016 at 12:11:03 PM

Latest Report: Jul 25, 2016 at 11:00 AM


Visibility: N/A

Pressure: 29.53 "Hg

Humidity: 38%

Dew Point: 73 °F

Location of Umm al-QuwainLocation

Past Weather in Umm al-Quwain — Graph

°F

Umm al-Quwain Temperature Yesterday

Maximum temperature yesterday: 109 °F (at 4:00 PM)
Minimum temperature yesterday: 91 °F (at 1:00 AM)
Average temperature yesterday: 98 °F

High & Low Weather Summary for the Past Weeks

 TemperatureHumidityPressure
High115 °F (Jul 15, 12:00 PM)84% (Jul 12, 4:00 AM)29.59 "Hg (Jul 12, 4:00 AM)
Low86 °F (Jul 11, 7:00 AM)13% (Jul 11, 2:00 PM)29.33 "Hg (Jul 11, 3:00 PM)
Average99 °F46%29.45 "Hg
* Reported Jul 10 11:00 AM — Jul 25 11:00 AM, Umm al-Quwain, Weather by CustomWeather, © 2016

Note: Actual official high and low records may vary slightly from our data, if they occured in-between our weather recording intervals... More about our weather records

Advertising

Umm al-Quwain Weather History for the Previous 24 Hours

Scroll right to see more
 ConditionsComfort  
Time TempWeatherWind HumidityBarometerVisibility
11:00 AM
Mon, Jul 25
104 °FPassing clouds.10 mph38%29.53 "HgN/A
10:00 AM100 °FSunny.13 mph45%29.56 "Hg10 mi
9:00 AM97 °FClear.14 mph50%29.56 "Hg5 mi
8:00 AM93 °FClear.16 mph56%29.56 "Hg4 mi
7:00 AM90 °FClear.17 mph63%29.53 "Hg4 mi
6:00 AM90 °FClear.18 mph63%29.53 "Hg4 mi
5:00 AM90 °FClear.20 mph63%29.50 "Hg4 mi
4:00 AM90 °FClear.21 mph63%29.47 "Hg4 mi
3:00 AM91 °FClear.21 mph59%29.47 "Hg4 mi
1:00 AM93 °FClear.18 mph53%29.47 "Hg10 mi
12:00 AM93 °FClear.15 mph56%29.47 "Hg5 mi
11:00 PM
Sun, Jul 24
93 °FClear.13 mph56%29.47 "Hg5 mi
10:00 PM93 °FClear.14 mph56%29.47 "Hg5 mi
9:00 PM93 °FClear.20 mph59%29.45 "Hg5 mi
8:00 PM95 °FClear.21 mph56%29.45 "Hg4 mi
7:00 PM99 °FClear.21 mph50%29.42 "Hg4 mi
6:00 PM102 °FClear.20 mph45%29.39 "Hg4 mi
5:00 PM108 °FClear.17 mph34%29.39 "Hg4 mi
4:00 PM109 °FClear.17 mph32%29.39 "Hg4 mi
3:00 PM108 °FClear.18 mph36%29.42 "Hg4 mi
2:00 PM108 °FClear.20 mph38%29.42 "Hg4 mi
1:00 PM108 °FClear.18 mph36%29.45 "Hg4 mi
12:00 PM106 °FDuststorm.18 mph38%29.45 "Hg2 mi
Weather by CustomWeather, © 2016

See weather overviewHow to use our weather pages